sat.trackr.live / text

‹ back to catalog

STARLINK-31015

NORAD 58521 · 2023-191P

PAYLOAD ACTIVE UNKNOWN

§ Identity

Operator
Country
US
Launch date
2023-12-07
Launch site
AFETR
Launch vehicle
Mass (kg)
RCS (m²)

Purposes: comms

External: N2YO · Heavens-Above · Gunter

§ Orbital elements

Epoch: 2026-05-25T01:10:13.447200Z

Period
94.27 min
Inclination
43.0033°
Eccentricity
0.0001182
Mean motion
15.27598170 rev/d
Perigee alt
482.2 km
Apogee alt
483.8 km
Semi-major
6,861.1 km
B*
6.7882e-4
RAAN
31.8431°
Arg perigee
265.5613°
Mean anomaly
94.5104°
Rev number
13,712

§ Raw data

STARLINK-310151 58521U 23191P   26145.04876675  .00018475  00000+0  67882-3 0  99962 58521  43.0033  31.8431 0001182 265.5613  94.5104 15.27598170137128

JSON: /api/v1/satellites/58521 · /tle

For live sub-satellite position, see the globe view (requires WebGL).

§ Visibility from observer

Set your observer location to see the next 7 days of passes ≥ 10°. The values pass through the URL so the page stays shareable.

No JS? Fill the form by hand. The geolocation button needs JavaScript.